Regional Weather Roundup
Issued by NWS Jackson, KY

Home | Current Version | Previous Version | Graphics & Text | Print | Product List | Glossary On
Versions: 1 2 3 4 5 6 7 8 9 10 11 12 13 14 15 16 17 18 19 20 21 22 23 24 25 26 27 28 29 30 31 32 33 34 35 36 37 38 39 40 41 42 43 44 45 46 47 48 49 50
000
ASUS43 KJKL 010410
RWRJKL

EAST KENTUCKY HOURLY WEATHER ROUNDUP
NATIONAL WEATHER SERVICE JACKSON KY
1200 AM EDT SAT AUG 01 2015

NOTE: "FAIR" INDICATES FEW OR NO CLOUDS BELOW 12,000 FEET WITH
NO SIGNIFICANT WEATHER AND/OR OBSTRUCTIONS TO VISIBILITY.

* THESE REPORTS ARE NOT UNDER NWS QUALITY CONTROL AND MAY NOT
  REPORT WEATHER SUCH AS PRECIPITATION AND FOG.

KYZ079-080-083-085-087-088-110-112-115-119-120-010500
...EASTERN KENTUCKY...

CITY           SKY/WX    TMP DP  RH WIND       PRES   REMARKS
JACKSON        CLEAR     73  60  63 W5        30.04S
LONDON         CLEAR     68  62  81 CALM      30.05S
SOMERSET*      CLEAR     64  64 100 CALM      30.06S
MONTICELLO*    CLEAR     64  64 100 CALM      30.08S
WILLIAMSBURG*  CLEAR     64  64 100 CALM      30.06S
MIDDLESBORO*   CLEAR     65  62  91 CALM      30.08S
HAZARD APT*    CLEAR     70  63  78 CALM      30.04S
BLACK MTN*       N/A     64  55  72 S2          N/A
PIKEVILLE APT* PTCLDY    70  63  78 CALM      30.04S
BIG SANDY*     CLEAR     71  64  77 SW5       30.03S
MOREHEAD APT*  CLEAR     75  59  57 W5        30.03S
$$

KYZ035-036-041-042-044-050-067-078-099-010500
...CENTRAL KENTUCKY...

CITY           SKY/WX    TMP DP  RH WIND       PRES   REMARKS
MT STERLING*   CLEAR     66  63  88 W5        30.03S
FLEMING/MASON* CLEAR     70  61  73 SW9       30.01S
DANVILLE*      CLEAR     68  63  83 CALM      30.05S
RICHMOND*      CLEAR     72  61  68 SW5       30.03S
LEXINGTON      CLEAR     69  61  75 SW7       30.03S
FRANKFORT      CLEAR     71  62  73 W6        30.01S
$$

KYZ091>093-OHZ055-061-077-WVZ005-015-034-035-042-010500
...SOUTHERN OHIO/WEST VIRGINIA...

CITY           SKY/WX    TMP DP  RH WIND       PRES   REMARKS
COVINGTON      CLEAR     71  61  70 W7        29.99S
COLUMBUS       PTCLDY    73  65  75 SW6       29.93S
DAYTON         PTCLDY    69  64  84 W8        29.97S
WILMINGTON     PTCLDY    74  58  57 W8        29.97R
HUNTINGTON     CLEAR     69  65  86 S3        29.98S
CHARLESTON     CLEAR     68  63  84 CALM      29.98S
PINEVILLE*     PTCLDY    63  63 100 MISG      30.11S
BECKLEY        CLEAR     65  57  75 S7        30.09S
BLUEFIELD      CLEAR     67  56  67 W6        30.12S
$$

VAZ002-007-008-TNZ017-027-036-066-071-010500
...SOUTHWEST VIRGINIA/EAST TENNESSEE...

CITY           SKY/WX    TMP DP  RH WIND       PRES   REMARKS
WISE*          CLEAR     64  55  72 CALM      30.14S
ABINGDON*      CLEAR     64  58  81 CALM      30.09F
BRISTOL        CLEAR     64  59  83 CALM      30.07R
KNOXVILLE      CLEAR     73  61  65 NE3       30.03S
OAK RIDGE      CLEAR     70  64  81 CALM      30.06S
CROSSVILLE     CLEAR     66  60  81 CALM      30.10S
NASHVILLE      CLEAR     78  62  57 N3        30.05S
$$

...KEY TO REMARKS...
VSB - VISIBILITY IN MILES
WCI - WIND CHILL INDEX
HX  - HEAT INDEX

$$



USA.gov is the U.S. government's official web portal to all federal, state and local government web resources and services.